Regional Weather Roundup
Issued by NWS Midland/Odessa, TX

Home | Current Version | Previous Version | Text Only | Print | Product List | Glossary On
Versions: 1 2 3 4 5 6 7 8 9 10 11 12 13 14 15 16 17 18 19 20 21 22 23 24 25 26 27 28 29 30 31 32 33 34 35 36 37 38 39 40 41 42 43 44 45 46 47 48 49 50
000
ASUS44 KMAF 221510
RWRMAF
MIDLAND AREA WEATHER ROUNDUP
NATIONAL WEATHER SERVICE MIDLAND TX
1000 AM CDT TUE JUL 22 2014

...IN SOUTHWEST TEXAS AND SOUTHEAST NEW MEXICO...

CITY           SKY/WX    TMP DP  RH WIND       PRES   REMARKS
ALPINE         SUNNY     78  64  60 CALM      30.28R
ANDREWS        NOT AVBL
ARTESIA        MOSUNNY   81  68  65 S9        30.17S
BIG SPRING       N/A     84  69  60 S8        30.15F
CARLSBAD       SUNNY     83  68  60 S10       30.14R
DRYDEN           N/A     84  72  67 E10       30.09S
FORT STOCKTON  PTSUNNY   83  68  60 SE10G22   30.12S
GUAD PASS      SUNNY     77  64  64 NE21      30.28S
HOBBS          SUNNY     81  66  61 SE12      30.19R
MARFA          SUNNY     77  66  69 SE5       30.27R
MIDLAND AIRPK  PTSUNNY   82  70  65 SE3       30.14S
MIDLAND INTL   PTSUNNY   82  70  66 SE9       30.14S
ODESSA         PTSUNNY   82  68  62 S8        30.15S
PECOS          MOSUNNY   81  68  63 E8        30.10S
PRESIDIO       FAIR      86  65  49 NE8       30.09S
SEMINOLE       PTSUNNY   82  67  60 S13       30.17R
SNYDER         PTSUNNY   83  70  64 S9        30.13F
WINK           MOSUNNY   82  69  64 SE12      30.10F
$$
...OTHER STATIONS IN TEXAS...

CITY           SKY/WX    TMP DP  RH WIND       PRES   REMARKS
ABILENE        MOSUNNY   82  72  71 S7        30.11S
AMARILLO       MOSUNNY   80  62  54 CALM      30.19R
AUSTIN         PTSUNNY   82  73  74 SW9       30.06F
BROWNSVILLE    MOSUNNY   87  77  72 SE12      30.02R
CORPUS CHRISTI PTSUNNY   88  75  65 S13       30.03R
DALLAS FTW     PTSUNNY   85  74  69 VRB5      30.07F
DEL RIO        SUNNY     83  71  67 E12       30.05R
EL PASO        PTSUNNY   81  59  47 E3        30.15R
HOUSTON INT    MOSUNNY   84  76  76 W6        30.06R
LUBBOCK        PTSUNNY   85  67  54 S10       30.16R
SAN ANGELO     PTSUNNY   82  71  69 S8        30.10S
SAN ANTONIO    PTSUNNY   80  72  76 SE5       30.08S
WACO           PTSUNNY   84  73  69 CALM      30.06F
WICHITA FALLS  NOT AVBL
$$
...OTHER LOCATIONS IN NEW MEXICO...

CITY           SKY/WX    TMP DP  RH WIND       PRES   REMARKS
ALAMAGORDO     SUNNY     82  54  36 S3        30.19S
ALBUQUERQUE    MOSUNNY   81  51  35 N9        30.29R
CANNON AFB     PTSUNNY   75  64  69 SE9       30.25R
CLOVIS         NOT AVBL
HOLLOMAN AFB   SUNNY     85  54  34 S5        30.17R
ROSWELL        SUNNY     83  66  56 S14       30.17R
RUIDOSO        SUNNY     68  54  60 MISG      30.41S
SANTA FE       SUNNY     73  51  46 N10       30.37S
TRUTH OR CONSE MOSUNNY   82  49  31 N8        30.23R
TUCUMCARI      SUNNY     78  63  59 W13       30.20R
$$


USA.gov is the U.S. government's official web portal to all federal, state and local government web resources and services.